This is the latest recevied weather packets stored in our database for station/object F6DEV-13. If no packets are shown the sender has not sent any weather packets the latest 10 day(s).
| Time | Temp. | Humidity | Pressure | Rain* | Wind** | Luminosity | Snow |
|---|---|---|---|---|---|---|---|
| 1778168495 | 18.33° C | 42% | 1009 hPa | 0 mm | - | - | - |
| 1778168289 | 18.33° C | 42% | 1009 hPa | 0 mm | - | - | - |
| 1778168194 | 18.33° C | 42% | 1009 hPa | 0 mm | - | - | - |
| 1778168051 | 18.89° C | 40% | 1009 hPa | 0 mm | - | - | - |
| 1778167894 | 18.89° C | 40% | 1009 hPa | 0 mm | - | - | - |
| 1778167578 | 19.44° C | 38% | 1009 hPa | 0 mm | - | - | - |
| 1778167271 | 20° C | 39% | 1009 hPa | 0 mm | - | - | - |
| 1778166937 | 20° C | 38% | 1009 hPa | 0 mm | - | - | - |
| 1778166634 | 19.44° C | 41% | 1009.1 hPa | 0 mm | - | - | - |
| 1778166307 | 18.89° C | 43% | 1010 hPa | 0 mm | - | - | - |
| 1778166007 | 18.89° C | 42% | 1010 hPa | 0 mm | - | - | - |
| 1778165682 | 19.44° C | 42% | 1010 hPa | 0 mm | - | - | - |
| 1778165343 | 20° C | 44% | 1010 hPa | 0 mm | - | - | - |
| 1778165020 | 19.44° C | 41% | 1010 hPa | 0 mm | - | - | - |
| 1778164683 | 19.44° C | 42% | 1010 hPa | 0 mm | - | - | - |
| 1778164384 | 19.44° C | 40% | 1010 hPa | 0 mm | - | - | - |
| 1778164087 | 20° C | 41% | 1010 hPa | 0 mm | - | - | - |
| 1778163756 | 19.44° C | 45% | 1010 hPa | 0 mm | - | - | - |
| 1778163425 | 18.89° C | 45% | 1010 hPa | 0 mm | - | - | - |
| 1778163425 | 18.89° C | 45% | 1010 hPa | 0 mm | - | - | - |
| 1778163124 | 18.89° C | 44% | 1010 hPa | 0 mm | - | - | - |
| 1778162862 | 18.89° C | 47% | 1010 hPa | 0 mm | - | - | - |
| 1778162825 | 18.89° C | 47% | 1010 hPa | 0 mm | - | - | - |
| 1778162497 | 18.33° C | 44% | 1010 hPa | 0 mm | - | - | - |
| 1778162174 | 18.89° C | 46% | 1010 hPa | 0 mm | - | - | - |
* Rain latest hour (hover to see other rain measurements)
** Current wind speed in m/s (hover to see current wind gust speed)